Dewpoint
67 68 68 69 71 69 68 68 69 70 70 70 70 71 71 71 71 70 70 69 69 69 70 70 69 69 70 69 70 69 68 68 66 67 67 68 69 69 68 69 69 69 69
67 68 68 68 69 70 71 72 71 70 70 68 68 68 69 70 71 71 70 70 70 68 69 69 69 70 69 69 70 69 69 68 68 66 68 68 69 69 69 66 67 68 67
68 68 67 68 69 70 71 72 71 70 69 68 65 68 67 68 70 71 71 70 69 70 69 68 69 69 69 68 68 68 68 69 69 68 68 69 69 69 68 67 67 66 68
67 67 67 67 69 69 70 70 71 70 69 69 67 65 66 65 69 71 71 71 70 70 70 70 70 70 70 69 68 69 69 68 68 68 68 68 68 67 68 66 66 66 67
66 67 67 67 68 68 68 68 69 70 71 70 70 68 68 68 68 70 70 71 71 71 71 71 71 71 70 69 71 70 70 69 69 68 67 66 66 65 64 66 66 66 66
65 65 65 65 67 67 67 67 67 68 68 70 70 72 71 72 67 66 70 70 70 70 70 70 70 70 69 68 67 68 70 70 68 67 66 65 65 64 65 66 65 64 64
59 60 61 63 63 65 65 65 66 66 68 68 68 68 68 69 63 64 66 69 70 70 70 70 70 70 69 70 68 66 66 65 67 68 66 65 64 65 65 65 65 65 65
53 54 55 57 60 62 63 62 63 64 64 65 67 67 67 69 62 62 64 67 68 68 67 68 70 70 70 70 70 69 69 70 69 67 66 67 66 66 66 66 66 66 67
52 52 53 54 55 56 58 61 62 63 63 64 65 66 66 67 63 61 63 68 68 68 69 69 69 69 65 63 68 69 69 70 68 65 64 64 63 63 65 68 67 66 68
50 51 51 52 53 54 54 55 59 61 62 63 63 64 64 67 63 62 63 68 67 68 69 70 61 63 57 57 65 66 67 68 68 67 67 68 67 68 64 67 69 68 68
49 49 49 49 50 51 51 52 52 53 55 58 61 62 62 63 64 57 57 66 66 67 68 69 68 58 56 55 56 64 65 66 66 66 66 66 67 69 70 68 69 69 69
48 48 48 49 49 49 49 49 50 50 50 51 54 53 56 57 58 56 55 57 60 61 61 64 63 54 52 52 55 58 58 59 64 65 66 66 66 67 67 70 71 70 70
47 47 48 48 48 48 47 47 48 47 47 48 48 48 48 53 55 55 55 56 57 57 58 59 55 53 52 55 56 56 57 61 64 64 65 65 66 67 67 67 67 70 71
45 45 47 46 47 48 47 47 47 46 45 45 45 45 46 48 50 54 53 55 55 55 56 56 56 55 54 55 57 60 62 63 64 65 66 67 68 68 67 67 66 66 66
43 44 44 45 45 45 46 46 46 46 45 45 45 45 45 45 46 45 44 47 52 52 52 55 55 55 55 55 57 60 62 63 64 66 67 67 68 68 68 68 67 66 66
41 42 42 43 43 44 44 44 45 45 44 42 42 43 45 45 43 42 41 41 42 47 52 53 53 54 54 55 57 59 60 61 61 61 63 65 66 67 67 68 69 68 67
40 41 41 42 42 42 42 42 42 41 43 43 42 42 42 42 42 41 41 40 44 47 50 50 51 53 54 56 57 56 54 56 56 58 60 59 62 65 66 68 68 68 67
40 44 41 41 41 41 41 41 41 41 42 44 43 43 43 42 41 41 40 45 48 47 47 50 51 53 55 55 53 52 52 53 54 54 54 57 60 61 63 65 66 66 66
40 40 40 40 39 40 40 41 41 41 41 41 42 42 42 42 41 42 42 47 49 50 51 52 52 55 55 53 52 52 52 52 52 53 53 53 54 56 59 60 62 58 60
38 41 41 38 38 38 39 39 39 38 38 39 39 40 42 41 42 44 47 48 51 53 53 53 52 51 51 50 51 51 50 49 50 50 50 52 52 53 54 56 56 58 61
38 37 39 36 35 36 37 37 36 36 35 36 36 37 40 38 39 41 44 47 48 51 51 50 50 50 50 50 48 49 49 49 48 48 48 49 51 51 52 51 51 55 57
36 35 34 34 34 35 36 36 36 35 35 35 35 35 37 37 37 38 41 44 48 50 49 47 47 47 46 48 48 47 47 47 47 47 46 46 47 47 48 49 50 50 54
35 34 33 33 34 35 34 35 35 35 34 34 34 34 34 34 35 36 36 38 40 43 48 47 46 45 45 45 46 45 45 45 45 45 44 43 43 44 44 45 46 47 50
35 34 34 34 34 34 34 34 34 35 34 34 33 33 32 33 35 36 36 36 38 40 43 45 44 43 43 43 43 43 43 43 43 42 42 41 40 41 42 44 45 47 49
35 34 34 34 34 34 34 34 34 34 34 34 34 34 34 34 34 33 35 37 38 39 40 42 44 43 42 41 41 40 38 34 36 36 38 37 38 39 40 42 43 45 47
35 36 36 36 35 35 34 34 34 34 33 35 35 34 34 35 35 35 35 36 38 38 39 40 41 41 41 41 39 37 34 32 34 32 34 36 37 39 40 42 43 45 47
Lifted_Index
-4 -4 -4 -4 -4 -3 -3 -3 -3 -3 -3 -3 -3 -4 -4 -4 -4 -4 -4 -4 -4 -3 -3 -4 -3 -3 -4 -4 -4 -4 -4 -4 -4 -4 -4 -4 -4 -4 -4 -3 -3 -3 -3
-3 -3 -3 -3 -3 -4 -4 -4 -4 -4 -3 -3 -3 -3 -3 -4 -4 -4 -4 -4 -3 -3 -3 -3 -3 -3 -3 -3 -3 -3 -4 -4 -3 -3 -3 -4 -4 -4 -4 -3 -2 -2 -2
-1 -1 -2 -2 -2 -3 -4 -5 -5 -4 -3 -3 -3 -3 -3 -3 -4 -4 -4 -4 -3 -3 -3 -3 -3 -3 -3 -3 -3 -3 -3 -3 -3 -3 -3 -3 -4 -4 -3 -2 -2 -1 -1
0 -0 -1 -1 -2 -3 -4 -4 -5 -4 -4 -4 -3 -3 -3 -3 -3 -3 -4 -4 -4 -3 -3 -3 -3 -3 -4 -4 -4 -4 -4 -4 -4 -4 -3 -3 -3 -3 -2 -2 -1 -0 -1
0 -0 -1 -1 -2 -2 -3 -4 -4 -4 -4 -4 -4 -4 -4 -4 -3 -3 -4 -4 -4 -4 -4 -4 -4 -4 -4 -4 -4 -4 -4 -4 -4 -4 -3 -3 -2 -2 -2 -2 -1 -1 -1
-1 -1 -1 -1 -1 -1 -2 -3 -3 -3 -3 -4 -4 -4 -4 -4 -4 -4 -4 -4 -4 -4 -4 -4 -4 -4 -4 -4 -4 -3 -3 -3 -4 -3 -3 -3 -3 -2 -3 -3 -3 -2 -2
-1 -1 -1 -1 -1 -0 -1 -1 -1 -2 -2 -3 -3 -3 -4 -4 -4 -5 -5 -5 -5 -5 -4 -4 -4 -4 -4 -4 -3 -3 -3 -3 -3 -3 -3 -3 -3 -3 -3 -3 -3 -3 -3
-1 -1 -1 -1 -0 -0 0 0 -0 -1 -1 -1 -2 -2 -3 -3 -4 -4 -4 -4 -4 -4 -4 -4 -3 -3 -3 -3 -3 -3 -3 -3 -3 -3 -3 -3 -3 -3 -3 -4 -4 -4 -4
-0 0 1 1 1 0 1 1 1 0 -0 -0 -1 -1 -2 -2 -2 -3 -3 -3 -4 -4 -4 -3 -3 -3 -3 -3 -3 -3 -3 -3 -3 -3 -3 -3 -3 -3 -3 -3 -3 -3 -3
3 3 4 4 4 3 2 2 2 1 1 1 1 1 1 -0 -1 -1 -2 -2 -2 -3 -3 -3 -3 -3 -3 -3 -3 -3 -3 -3 -3 -3 -3 -2 -2 -2 -2 -2 -2 -2 -2
8 8 8 8 8 7 6 6 5 4 3 3 4 4 3 3 2 2 1 0 -1 -1 -2 -2 -2 -2 -2 -2 -2 -2 -2 -2 -2 -2 -2 -2 -2 -2 -2 -1 -1 -1 -1
12 12 11 11 11 10 9 9 9 8 7 7 6 6 5 4 4 5 5 4 2 2 1 1 -0 -1 -1 -1 -1 -1 -1 -1 -1 -1 -1 -1 -1 -1 -1 -1 -1 -1 -1
14 14 13 13 12 12 11 11 11 11 10 9 9 7 6 5 6 7 7 7 6 6 6 5 3 2 2 2 1 1 1 1 1 1 0 -0 -0 -0 -1 -1 -1 -1 -1
14 14 14 13 13 12 12 12 12 12 12 11 11 10 9 8 8 8 8 8 8 8 8 7 6 6 6 5 4 3 3 2 2 2 1 1 0 -0 -0 -0 -0 -0 -0
15 14 14 14 13 13 13 13 13 13 12 12 12 11 11 10 10 9 9 9 9 8 8 8 8 8 8 7 6 5 4 4 4 3 2 2 1 0 0 -0 -0 -0 -0
14 14 14 14 14 14 14 14 13 13 13 13 13 13 12 12 11 10 10 9 9 9 9 8 9 9 9 8 7 7 6 7 6 6 5 4 3 1 1 -0 -0 -0 -1
14 14 14 14 14 14 14 14 14 14 14 14 14 14 13 13 12 11 11 10 10 10 9 9 9 9 9 7 7 7 8 9 9 9 8 7 6 4 2 1 0 -0 -1
13 13 13 14 14 14 14 14 14 14 14 14 15 15 15 14 14 13 12 12 11 11 10 10 9 9 8 7 7 7 8 9 9 10 10 10 9 7 5 3 2 1 0
13 13 13 13 13 13 13 13 13 13 13 13 14 14 15 15 15 14 14 13 12 11 10 9 9 8 7 7 7 7 8 8 9 10 10 11 11 10 8 7 5 3 2
12 12 12 12 13 13 13 13 13 13 13 13 13 13 14 14 14 14 14 13 12 11 10 10 9 8 7 7 7 8 8 9 9 10 10 11 12 12 11 10 8 6 5
11 11 12 12 12 12 12 12 12 12 12 12 12 13 13 13 13 14 14 13 12 11 11 11 10 9 9 8 8 8 9 9 9 10 10 11 11 12 12 12 11 9 8
10 11 11 11 11 11 11 12 12 12 12 12 12 13 13 13 13 13 14 13 13 12 12 12 11 11 10 10 9 9 9 9 10 10 10 11 11 12 12 12 12 11 10
10 10 11 11 11 11 11 12 12 12 12 13 13 13 13 13 13 14 14 14 14 13 13 13 12 12 12 11 11 11 10 10 10 10 11 11 12 12 12 12 12 11 10
9 9 10 10 10 11 11 12 12 12 13 13 14 14 14 14 14 14 15 15 15 15 15 14 14 13 13 13 12 12 11 11 11 11 11 11 11 12 12 12 12 11 10
8 8 8 9 10 10 11 11 11 12 13 14 14 14 15 15 15 16 16 16 16 16 16 16 15 15 15 14 13 12 12 11 11 11 11 11 11 11 11 11 11 10 9
7 7 8 9 9 10 10 11 11 12 13 13 14 15 15 15 16 16 17 17 17 17 17 17 16 16 16 15 14 13 12 12 11 11 10 10 10 10 11 11 10 10 9